Temperature
5 5 5 5 5 4 4 4 3 3 3 3 3 3 3 4 4 4 4 4 4 4 4 4 4 4 4 4 4 4 4 4 4 4 4 4 4 4
5 5 5 4 4 4 4 3 3 2 2 2 2 3 3 3 3 3 3 3 3 3 3 3 3 3 3 3 3 3 3 3 3 3 3 3 3 3
5 4 4 4 4 3 3 3 3 2 2 2 2 2 2 2 2 2 2 3 3 3 3 3 3 2 2 2 2 2 2 3 3 3 3 2 3 3
4 4 4 4 3 3 3 3 2 2 2 1 2 2 2 2 2 2 2 2 2 2 2 2 2 2 2 2 2 2 2 2 2 2 2 2 2 2
4 3 3 3 3 3 2 2 2 1 1 1 1 1 1 1 1 1 1 1 1 1 1 1 1 1 1 1 1 1 1 1 1 1 1 1 1 1
3 3 3 3 2 2 2 1 1 1 1 0 0 0 0 0 0 0 0 1 1 1 1 1 0 0 0 0 0 0 0 0 0 0 0 1 1 1
3 3 2 2 2 2 1 1 0 0 -0 -0 -1 -1 -1 -1 -1 -1 -1 -1 -0 -0 -0 -0 -0 -0 -0 -0 -0 -0 -0 -0 -0 -0 -0 -0 -0 -0
2 2 2 2 1 1 1 1 0 -0 -1 -1 -1 -1 -1 -2 -2 -2 -2 -2 -2 -2 -1 -1 -1 -1 -1 -1 -1 -1 -1 -1 -1 -1 -1 -1 -1 -1
2 2 1 1 1 1 0 0 -0 -1 -1 -2 -2 -2 -2 -2 -2 -2 -3 -3 -3 -3 -2 -2 -1 -2 -1 -1 -1 -1 -1 -2 -2 -2 -2 -2 -2 -2
2 1 1 1 1 0 -0 -1 -1 -1 -1 -2 -2 -2 -2 -3 -3 -3 -3 -3 -3 -3 -3 -3 -2 -2 -2 -2 -2 -2 -2 -2 -2 -2 -3 -2 -2 -2
1 1 1 0 0 -0 -1 -1 -1 -1 -2 -2 -2 -3 -3 -3 -3 -3 -4 -4 -4 -4 -4 -4 -4 -3 -3 -2 -2 -2 -3 -3 -3 -3 -3 -3 -3 -3
1 1 0 0 -0 -1 -1 -2 -2 -2 -2 -3 -3 -3 -3 -3 -3 -4 -4 -4 -5 -5 -5 -5 -5 -5 -4 -4 -3 -3 -3 -3 -3 -3 -3 -3 -4 -4
0 0 -0 -0 -1 -1 -2 -2 -2 -3 -3 -3 -3 -3 -4 -4 -4 -4 -4 -5 -5 -5 -5 -6 -6 -6 -6 -6 -4 -4 -4 -4 -4 -4 -4 -4 -4 -4
-0 -1 -1 -1 -1 -2 -2 -3 -3 -3 -4 -4 -4 -4 -4 -4 -4 -4 -5 -5 -5 -5 -6 -6 -6 -6 -7 -7 -6 -5 -5 -5 -5 -5 -5 -5 -5 -4
-1 -1 -2 -2 -2 -2 -3 -3 -4 -4 -4 -4 -4 -4 -4 -5 -5 -5 -5 -5 -5 -5 -6 -6 -6 -7 -7 -7 -7 -6 -6 -5 -5 -6 -6 -5 -5 -5
-2 -2 -2 -2 -3 -3 -3 -4 -4 -4 -5 -5 -5 -5 -5 -5 -5 -5 -6 -6 -6 -5 -6 -6 -7 -7 -7 -7 -7 -6 -6 -7 -6 -6 -6 -6 -5 -5
-2 -3 -3 -3 -3 -3 -4 -4 -4 -5 -5 -5 -5 -5 -6 -6 -6 -6 -6 -6 -6 -6 -6 -6 -7 -7 -7 -7 -7 -6 -7 -7 -7 -7 -7 -6 -6 -6
-3 -3 -3 -4 -4 -4 -4 -4 -4 -5 -5 -5 -6 -6 -6 -6 -6 -6 -6 -7 -7 -7 -7 -7 -7 -7 -7 -7 -7 -7 -7 -7 -7 -7 -7 -7 -6 -6
-3 -3 -3 -4 -4 -4 -4 -4 -5 -5 -5 -6 -6 -6 -6 -6 -6 -7 -7 -7 -7 -7 -7 -7 -8 -8 -9 -9 -7 -7 -8 -8 -7 -7 -7 -7 -7 -6
-4 -4 -4 -4 -4 -4 -4 -5 -5 -5 -5 -6 -6 -6 -6 -7 -7 -7 -7 -7 -7 -8 -8 -8 -8 -9 -9 -9 -9 -7 -7 -8 -8 -8 -8 -7 -7 -6
-4 -4 -4 -4 -4 -4 -5 -5 -5 -5 -6 -6 -6 -6 -7 -7 -7 -7 -7 -8 -8 -8 -8 -8 -8 -9 -9 -9 -9 -8 -7 -8 -8 -8 -8 -8 -8 -7
-4 -4 -4 -5 -5 -5 -5 -5 -5 -6 -6 -6 -6 -7 -7 -7 -7 -7 -8 -8 -8 -8 -8 -8 -8 -9 -9 -9 -9 -9 -8 -7 -7 -8 -8 -8 -9 -9
-5 -5 -5 -5 -5 -5 -5 -5 -6 -6 -6 -6 -6 -7 -7 -7 -7 -8 -8 -8 -8 -8 -8 -9 -9 -9 -9 -9 -9 -9 -8 -8 -8 -8 -7 -8 -8 -8
Wind_Speed
3 4 3 3 3 3 3 4 4 4 5 3 2 3 5 6 7 8 9 10 11 11 10 10 9 10 10 11 12 12 13 13 13 14 14 14 14 15
3 3 3 3 3 3 3 3 4 5 5 4 4 5 6 6 8 9 9 10 9 9 10 9 9 9 10 11 11 12 12 12 13 13 14 14 15 15
4 4 4 4 3 3 3 4 4 5 7 6 5 6 7 7 7 8 8 8 7 8 9 9 9 10 10 11 11 12 12 12 12 13 14 15 15 15
5 5 5 4 5 4 4 4 4 5 6 8 7 6 7 7 7 7 7 7 7 8 9 9 9 9 10 11 11 11 11 12 12 13 14 15 15 16
6 6 6 6 6 5 5 5 4 5 5 7 7 6 6 5 7 7 7 6 7 7 8 8 8 9 10 10 10 11 11 12 12 13 14 14 15 16
7 7 7 7 7 6 5 6 5 5 6 6 6 6 5 5 5 6 7 7 6 6 6 7 8 9 8 9 10 11 11 11 12 13 13 14 15 16
7 7 7 7 8 7 6 6 6 5 5 5 6 6 5 5 5 5 7 8 7 4 6 6 6 6 6 7 8 9 11 12 12 13 13 14 15 16
8 7 7 8 9 11 10 9 8 7 7 6 6 7 7 6 6 6 6 7 5 3 6 7 5 5 5 6 9 11 11 12 12 13 14 15 16 16
8 8 6 6 8 8 9 10 10 10 10 8 8 8 7 6 7 7 7 7 7 7 7 7 5 6 5 7 10 11 11 11 12 14 15 16 16 16
8 8 8 8 7 8 7 8 8 8 8 8 8 8 7 6 6 7 8 8 8 5 4 5 6 6 7 7 8 9 10 12 13 15 16 16 16 16
8 8 9 9 9 10 9 8 8 7 7 8 8 8 7 7 6 5 5 6 6 5 3 4 5 7 7 6 5 8 11 13 15 16 16 16 16 17
7 8 10 11 10 10 9 9 9 7 6 6 6 7 6 6 6 6 5 5 5 4 2 3 5 5 5 4 5 7 9 12 14 15 15 15 16 12
7 7 6 10 11 11 11 9 9 7 6 6 5 5 5 4 4 5 5 5 5 5 3 3 4 5 5 5 6 7 7 8 10 11 13 14 15 13
7 7 6 8 10 11 10 10 10 8 6 5 5 5 5 4 4 4 5 6 6 7 7 5 5 5 6 8 7 7 8 9 9 9 9 13 14 15
7 8 8 9 9 9 10 10 9 7 6 6 6 5 5 4 4 4 4 5 7 8 8 8 7 7 7 8 8 9 9 8 8 8 9 10 10 10
7 7 9 9 8 8 7 7 7 6 6 6 6 5 4 3 4 4 4 4 4 5 5 6 8 8 8 10 10 11 10 7 8 9 10 10 10 10
6 5 6 6 6 6 6 6 5 6 6 6 5 5 4 4 4 4 4 4 4 5 5 4 6 8 9 10 9 10 9 9 9 10 10 11 11 10
8 7 7 7 7 7 6 6 6 6 6 6 6 5 5 5 4 4 4 5 5 5 5 5 5 5 5 6 10 10 9 9 10 10 10 11 12 11
8 8 7 7 7 7 7 7 7 6 5 6 6 6 5 5 5 4 4 5 5 5 5 5 4 5 7 8 5 7 8 9 10 10 10 10 12 13
7 8 7 7 7 7 7 7 6 6 5 6 6 5 5 5 5 5 5 5 5 5 5 5 5 5 6 7 7 8 10 10 10 11 11 11 11 14
7 7 7 7 7 7 6 6 6 6 6 6 6 6 5 5 6 5 5 6 6 5 6 6 5 7 6 6 7 8 9 10 11 10 11 11 11 10
7 7 7 7 7 7 6 6 6 6 6 6 6 6 6 6 6 6 5 5 5 6 6 6 5 5 5 6 9 10 11 11 11 14 15 13 9 7
7 7 7 7 7 6 6 7 7 6 6 6 6 6 5 5 5 5 5 5 5 5 5 5 5 5 6 7 9 10 12 12 10 10 9 11 15 19
Wind_Direction
258 246 247 253 260 269 273 275 280 285 284 272 270 285 313 313 321 316 315 321 323 325 328 329 330 329 332 331 330 328 324 322 322 321 321 321 320 318
256 256 250 250 251 257 264 268 265 271 275 285 290 307 316 311 313 310 311 312 311 320 324 325 328 328 328 328 327 324 322 320 320 319 319 319 319 318
249 251 252 253 252 252 253 258 260 263 271 283 289 299 304 306 310 311 311 311 310 316 321 322 324 324 325 326 325 324 323 321 321 320 319 318 318 317
249 249 250 248 249 251 249 252 258 259 269 281 289 296 299 306 310 312 314 312 307 313 318 318 319 322 323 325 325 324 324 322 320 319 317 317 317 316
249 248 248 245 248 247 247 252 258 261 262 273 285 294 297 304 311 310 311 311 310 311 314 314 315 318 320 323 326 325 324 323 320 318 316 316 315 314
246 246 247 245 249 252 250 251 255 258 261 267 276 286 291 302 307 311 314 317 312 313 313 310 311 314 315 319 323 324 324 323 322 322 320 318 315 312
246 246 246 246 250 252 253 254 254 256 259 265 274 282 288 300 306 311 308 313 309 309 316 310 310 309 309 312 319 325 324 322 322 324 324 323 320 315
250 249 246 242 242 243 246 251 256 259 261 263 270 274 284 292 300 302 306 311 309 325 317 305 301 302 307 309 321 324 323 322 322 324 325 323 321 319
249 249 246 243 240 243 241 242 246 247 254 262 268 273 283 290 294 293 293 296 293 311 312 298 305 304 310 309 313 317 319 321 322 323 322 320 318 316
247 247 248 248 239 238 243 246 250 251 249 252 261 272 281 283 278 282 291 294 291 289 299 291 307 308 311 305 309 313 317 319 320 320 320 319 317 314
249 246 245 248 243 234 240 246 251 254 248 247 259 269 275 275 277 278 283 291 295 298 308 293 305 311 303 293 298 309 312 314 317 318 319 318 317 314
253 248 243 245 246 237 239 243 248 252 250 248 250 252 256 259 260 263 271 277 286 291 308 305 305 321 307 292 303 309 309 311 313 316 317 316 317 314
255 254 247 239 242 241 242 246 247 251 252 250 253 254 256 256 256 257 259 261 267 267 286 303 295 300 289 298 301 300 304 310 313 312 312 313 313 310
255 256 250 239 242 244 243 242 243 244 246 244 249 253 254 256 257 260 259 260 261 265 274 277 272 282 289 293 294 299 304 307 307 306 308 310 309 305
256 254 252 246 247 248 244 243 240 237 236 238 246 251 253 257 259 261 261 262 264 262 262 260 262 270 272 278 285 295 303 303 301 302 306 308 307 307
257 250 246 245 240 241 243 240 236 236 234 240 247 251 247 242 245 252 263 270 272 270 255 256 259 263 269 273 278 285 290 292 299 304 305 303 300 297
256 247 242 240 237 234 231 231 229 229 234 237 240 241 242 242 246 247 254 261 263 277 285 280 271 268 266 270 276 278 284 289 294 303 306 303 299 295
253 244 240 238 239 238 234 230 227 227 229 229 232 235 237 240 244 244 246 255 265 273 281 292 301 299 286 262 240 266 281 290 298 302 300 299 299 300
247 243 240 237 237 237 236 233 232 229 225 226 228 230 232 235 239 243 246 254 264 272 279 286 290 292 299 303 279 236 275 294 300 300 299 296 294 298
243 244 242 239 236 236 234 232 230 226 222 223 226 226 226 229 235 240 243 251 263 273 279 278 274 275 280 292 293 287 277 281 292 297 300 299 293 290
244 244 242 239 236 235 232 229 226 224 222 220 223 223 222 225 234 239 243 250 258 266 273 279 282 284 282 281 283 287 290 280 278 284 294 300 302 301
246 245 242 237 235 232 229 226 223 222 218 219 221 221 220 223 232 236 241 248 253 262 273 282 288 285 277 277 286 294 301 305 298 285 272 267 283 296
248 246 243 238 233 229 225 222 220 221 219 217 219 219 218 223 230 233 238 245 254 263 274 284 289 285 281 282 288 294 300 307 311 311 301 287 279 278
Height
1500 1499 1498 1497 1496 1496 1495 1494 1494 1492 1489 1487 1485 1483 1481 1479 1477 1475 1474 1472 1470 1467 1465 1463 1461 1460 1458 1456 1454 1452 1450 1448 1446 1445 1443 1441 1440 1438
1496 1495 1494 1494 1493 1492 1491 1490 1490 1489 1486 1484 1482 1480 1478 1476 1474 1472 1470 1468 1466 1464 1462 1460 1458 1456 1454 1452 1449 1447 1445 1443 1441 1439 1438 1436 1434 1433
1493 1492 1491 1490 1489 1488 1487 1486 1485 1484 1482 1480 1478 1476 1474 1472 1470 1468 1466 1464 1462 1460 1458 1456 1454 1452 1449 1447 1445 1443 1441 1438 1436 1434 1432 1431 1429 1427
1489 1488 1487 1486 1485 1484 1483 1482 1481 1480 1478 1476 1474 1472 1470 1469 1466 1464 1462 1460 1458 1456 1454 1451 1449 1447 1445 1443 1441 1438 1436 1434 1431 1429 1427 1426 1424 1422
1485 1484 1483 1482 1481 1480 1479 1478 1477 1476 1474 1472 1470 1468 1466 1465 1463 1461 1458 1456 1454 1451 1449 1447 1445 1443 1441 1438 1436 1434 1431 1429 1426 1424 1422 1420 1419 1417
1481 1480 1479 1478 1477 1476 1475 1473 1472 1471 1470 1468 1466 1464 1462 1461 1459 1457 1454 1452 1450 1447 1445 1443 1441 1439 1436 1434 1432 1429 1427 1424 1422 1420 1418 1415 1413 1411
1476 1475 1474 1473 1472 1471 1470 1469 1468 1467 1465 1464 1462 1460 1459 1457 1455 1453 1450 1448 1445 1443 1441 1439 1437 1434 1432 1429 1427 1425 1422 1420 1417 1415 1413 1410 1408 1406
1471 1470 1469 1468 1467 1466 1465 1464 1463 1462 1461 1460 1458 1457 1455 1454 1452 1450 1447 1445 1442 1441 1437 1435 1433 1430 1428 1425 1423 1421 1418 1415 1413 1410 1408 1405 1403 1400
1466 1465 1464 1463 1462 1461 1460 1459 1458 1457 1457 1456 1454 1453 1451 1450 1448 1446 1444 1442 1439 1437 1434 1430 1429 1426 1424 1421 1419 1417 1414 1411 1408 1406 1403 1400 1398 1395
1460 1459 1459 1457 1457 1456 1455 1454 1453 1452 1451 1450 1449 1448 1447 1445 1444 1442 1440 1438 1435 1433 1431 1427 1425 1422 1419 1417 1415 1413 1410 1407 1404 1401 1398 1396 1393 1390
1455 1454 1453 1452 1451 1451 1450 1448 1448 1447 1446 1445 1444 1443 1442 1441 1440 1438 1436 1434 1432 1430 1428 1425 1421 1418 1415 1413 1411 1408 1406 1403 1400 1397 1394 1391 1388 1385
1449 1448 1448 1447 1446 1445 1444 1443 1442 1442 1441 1440 1439 1438 1437 1436 1435 1434 1432 1431 1428 1426 1424 1422 1418 1415 1411 1408 1407 1405 1402 1399 1395 1392 1389 1386 1383 1379
1444 1443 1442 1441 1440 1440 1439 1438 1437 1437 1436 1435 1434 1433 1432 1431 1430 1429 1428 1427 1425 1423 1421 1419 1416 1413 1410 1405 1402 1400 1397 1394 1390 1387 1384 1381 1378 1375
1438 1437 1436 1436 1435 1434 1434 1433 1433 1432 1431 1430 1429 1429 1428 1427 1426 1425 1423 1422 1421 1419 1417 1415 1413 1410 1407 1403 1398 1395 1393 1390 1386 1383 1380 1376 1373 1370
1433 1432 1431 1430 1430 1429 1428 1428 1427 1427 1426 1425 1424 1424 1423 1422 1421 1420 1419 1418 1416 1415 1413 1411 1409 1407 1404 1400 1396 1392 1388 1385 1382 1379 1375 1372 1368 1365
1428 1426 1426 1425 1424 1423 1423 1423 1422 1422 1421 1420 1420 1419 1419 1418 1417 1416 1415 1413 1412 1410 1409 1407 1405 1403 1400 1396 1393 1388 1385 1382 1378 1375 1371 1367 1363 1360
1422 1421 1420 1419 1418 1418 1417 1417 1417 1416 1416 1416 1415 1415 1414 1413 1413 1412 1411 1409 1408 1406 1405 1403 1401 1399 1396 1393 1388 1385 1382 1378 1374 1370 1366 1361 1358 1356
1417 1415 1414 1414 1413 1412 1412 1412 1412 1411 1411 1411 1410 1410 1409 1409 1408 1407 1406 1405 1404 1402 1400 1399 1397 1394 1391 1387 1385 1381 1378 1374 1370 1367 1362 1357 1352 1350
1410 1409 1408 1408 1408 1407 1407 1407 1406 1406 1406 1406 1405 1405 1405 1404 1404 1403 1402 1401 1400 1398 1397 1395 1393 1390 1387 1383 1380 1378 1374 1370 1366 1362 1358 1354 1348 1344
1404 1404 1403 1403 1402 1402 1402 1401 1401 1401 1401 1401 1400 1400 1400 1400 1399 1398 1398 1397 1396 1394 1393 1391 1389 1387 1385 1381 1376 1373 1371 1367 1362 1357 1353 1349 1344 1340
1399 1398 1397 1397 1397 1397 1396 1396 1396 1396 1396 1396 1396 1396 1395 1395 1395 1394 1393 1392 1391 1390 1388 1387 1386 1384 1381 1377 1373 1368 1366 1363 1359 1354 1349 1344 1339 1334
1393 1392 1392 1391 1391 1391 1391 1391 1391 1391 1391 1391 1391 1391 1391 1390 1390 1389 1389 1388 1387 1386 1385 1383 1381 1379 1377 1374 1369 1365 1361 1358 1355 1351 1347 1343 1338 1331
1387 1387 1386 1386 1386 1385 1386 1386 1386 1386 1386 1386 1386 1386 1386 1386 1385 1385 1385 1384 1383 1382 1381 1379 1377 1375 1373 1370 1366 1362 1357 1353 1349 1345 1342 1339 1335 1330